836  
ASUS41 KPHI 272312  
RWRPHI  
 
REGIONAL WEATHER ROUNDUP  
NATIONAL WEATHER SERVICE MOUNT HOLLY NJ  
700 PM EDT FRI MAY 27 2016  
 
NOTE: "FAIR" INDICATES FEW OR NO CLOUDS BELOW 12,000 FEET WITH NO  
SIGNIFICANT WEATHER AND/OR S TO VISIBILITY
.  
 
* = STATION DOES NOT REPORT PRECIPITATION (E.G. RAIN, SNOW, ETC.)  
OR FOG.
 
 
NJZ015>026-280000-  
SOUTHERN NEW JERSEY  
 
CITY SKY/WX TMP DP RH WIND PRES REMARKS
 
POMONA SUNNY 75 58 55 S20G26 30.06S  
WILDWOOD* SUNNY N/A N/A N/A S17G25 30.07S  
MILLVILLE SUNNY 77 65 66 VRB5 30.05S  
WRIGHTSTOWN CLOUDY 85 68 56 S9 29.99S  
MOUNT HOLLY MOSUNNY 85 66 53 VRB6 30.01S  
TRENTON SUNNY 87 65 47 SW9 30.01R  
 

 
NJZ001>014-280000-  
NORTHERN NEW JERSEY  
 
CITY SKY/WX TMP DP RH WIND PRES REMARKS
 
SUSSEX MOSUNNY 86 65 49 SW3 30.00S  
ANDOVER* N/A 85 65 51 SW3 30.01S  
MORRISTOWN MOSUNNY 88 61 40 W3 30.00R  
NEWARK PTSUNNY 85 66 53 VRB3 29.99R  
TETERBORO MOSUNNY 86 62 44 SE8G18 29.99R  
CALDWELL MOSUNNY 88 64 44 SW6 29.99S  
SOMERVILLE SUNNY 87 65 47 CALM 29.98R  
ALLAIRE* MOSUNNY 82 65 56 S14G20 30.04R  
TOMS RIVER* SUNNY 79 61 53 S14 30.04R  
 

 
PAZ043-044-047-054-055-060>062-066>071-280000-  
EASTERN PENNSYLVANIA  
 
CITY SKY/WX TMP DP RH WIND PRES REMARKS
 
PHILADELPHIA PTSUNNY 87 64 46 SW9 30.02S  
NORTH PHILA CLOUDY 88 66 48 SW9 30.02S HX 90  
BLUE BELL* MOSUNNY 84 66 54 SW8 30.02R  
DOYLESTOWN SUNNY 84 64 50 VRB7 30.01S  
QUAKERTOWN* SUNNY 84 68 58 SW8 30.03R  
PERKASIE* FAIR 84 68 58 SW7 30.04R  
POTTSTOWN SUNNY 85 67 54 S8 30.04R  
LANCASTER MOSUNNY 83 68 60 S9 30.01S  
COATESVILLE CLOUDY 82 66 57 VRB5 30.06R  
READING MOSUNNY 86 67 52 SW10 30.00R  
ALLENTOWN SUNNY 87 65 47 SW9 30.00S  
MOUNT POCONO MOSUNNY 78 62 57 SW9 30.07S  
HAZLETON CLOUDY 82 61 47 CALM 30.09R  
LEHIGHTON FAIR 86 61 42 SW5 30.01S  
WILKES BARRE MOSUNNY 84 63 49 SW12 30.01S  
 

 
DEZALL-MDZ008-012-015-019-020-280000-  
DELAWARE AND EASTERN MARYLAND  
 
CITY SKY/WX TMP DP RH WIND PRES REMARKS
 
WILMINGTON CLOUDY 85 65 51 SW10 30.03S  
DOVER SUNNY 84 69 60 S9 30.03S  
GEORGETOWN SUNNY 80 63 55 S12 30.08R  
EASTON SUNNY 82 70 65 S13 30.09S  
PATUXENT MOSUNNY 79 63 57 S10 30.05S  
OCEAN CITY MOSUNNY 72 59 63 SW10G20 30.10F  
WALLOPS ISLAND FAIR 73 59 61 S17 30.11F  
CAMBRIDGE SUNNY 79 63 57 S10G18 30.06S  
SALISBURY SUNNY 79 60 52 S13 30.08S  
 

 
PAZ001-021-NYZ056-072-MDZ011-DCZ001-280000-  
OTHER NEARBY LOCATIONS  
 
CITY SKY/WX TMP DP RH WIND PRES REMARKS
 
HARRISBURG PTSUNNY 82 67 60 SW6 30.00R  
STATE COLLEGE SUNNY 81 64 57 S9 30.04R  
WILLIAMSPORT MOSUNNY 81 67 62 E7 29.98R  
BINGHAMTON CLOUDY 73 65 75 CALM 30.04S  
NEW YORK CITY MOSUNNY 80 63 55 S3 30.03S  
BALTIMORE CLOUDY 82 68 62 SE7 30.03R  
WASHINGTON DC PTSUNNY 83 69 62 S12 30.02S  
 

 
 
 
CLICK HERE TO GO TO PREVIOUS BULLETINS.

The Nexlab PA Page
The Nexlab NJ Page
The Nexlab DE Page
The Nexlab MD Page Main Text Page